Date,TemperatureHighF,TemperatureAvgF,TemperatureLowF,DewpointHighF,DewpointAvgF,DewpointLowF,HumidityHigh,HumidityAvg,HumidityLow,PressureMaxIn,PressureMinIn,WindSpeedMaxMPH,WindSpeedAvgMPH,GustSpeedMaxMPH,PrecipitationSumIn
2013-1-1,75.7,59.8,47.0,61.2,54.2,45.9,99,84,57,30.21,29.99,12,1,12,0.00
2013-1-2,74.0,63.3,54.2,67.9,60.6,53.1,98,91,80,30.06,29.95,9,1,9,0.06
2013-1-3,61.9,56.5,49.6,60.9,55.3,48.2,99,96,91,30.24,30.04,10,1,10,0.05
2013-1-4,55.2,50.8,46.9,51.9,48.5,45.3,96,92,87,30.32,30.21,8,2,8,0.00
2013-1-5,65.2,53.4,42.4,55.7,48.0,38.3,93,82,68,30.34,30.24,6,1,6,0.00
2013-1-6,60.6,55.7,51.2,55.8,53.4,49.8,97,92,82,30.25,30.10,5,1,5,0.34
2013-1-7,64.1,53.9,46.1,56.5,50.1,43.3,96,87,73,30.30,30.16,9,2,9,0.00
2013-1-8,71.9,61.9,55.3,66.5,59.0,52.8,96,91,81,30.27,30.18,6,1,6,0.00
2013-1-9,77.1,67.1,61.4,71.9,65.0,60.2,98,93,83,30.34,30.22,6,0,6,0.00
2013-1-10,79.4,69.5,63.4,71.2,66.2,62.2,98,90,69,30.34,30.25,12,1,12,0.00
2013-1-11,82.7,69.4,58.8,69.7,63.3,57.9,99,83,50,30.26,30.14,12,1,12,0.00
2013-1-12,81.3,68.6,58.8,70.0,63.3,58.1,99,85,55,30.19,30.09,10,1,10,0.00
2013-1-13,79.3,67.9,58.4,68.9,62.5,57.6,99,85,56,30.16,30.05,1,0,1,0.00
2013-1-14,82.6,69.1,58.6,68.8,62.7,57.8,99,82,55,30.18,30.08,12,1,12,0.00
2013-1-15,80.6,69.8,59.6,69.0,63.9,58.7,98,83,60,30.15,30.03,12,2,12,0.00
2013-1-16,81.5,71.0,62.6,69.0,63.7,59.7,97,79,55,30.08,29.96,13,2,13,0.00
2013-1-17,75.2,59.4,44.2,67.5,53.9,35.7,99,83,61,30.14,29.90,20,4,20,0.00
2013-1-18,60.7,50.0,43.0,48.1,41.8,35.4,85,74,59,30.39,30.14,12,4,12,0.00
2013-1-19,68.5,55.6,45.5,57.7,50.1,40.5,93,82,67,30.36,30.19,9,2,9,0.00
2013-1-20,74.8,61.8,52.9,56.1,53.1,49.8,95,76,46,30.20,30.05,8,1,8,0.00
2013-1-21,69.4,58.1,49.7,52.9,49.5,44.2,95,75,51,30.13,30.01,7,1,7,0.00
2013-1-22,63.5,53.3,45.1,44.9,37.2,31.5,72,56,33,30.29,30.08,10,2,10,0.00
2013-1-23,65.4,50.2,37.9,42.3,36.4,30.8,84,62,34,30.41,30.26,9,1,9,0.00
2013-1-24,74.2,58.9,45.2,55.6,48.4,40.0,89,70,46,30.30,30.17,12,1,12,0.00
2013-1-25,75.1,61.8,51.5,58.6,52.2,49.3,95,73,42,30.32,30.14,9,1,9,0.00
2013-1-26,76.4,64.2,52.6,63.7,57.5,50.3,97,80,62,30.23,30.13,8,1,8,0.00
2013-1-27,72.1,62.7,57.4,59.9,56.9,54.3,93,82,61,30.37,30.21,12,1,12,0.00
2013-1-28,76.9,65.9,55.1,65.2,60.4,53.7,96,83,63,30.36,30.24,12,2,12,0.00
2013-1-29,80.2,68.3,58.0,68.6,63.5,57.1,98,86,60,30.26,30.08,12,3,12,0.00
2013-1-30,85.2,74.2,58.5,67.6,64.9,54.6,95,75,53,30.10,29.76,20,5,20,0.03
2013-1-31,61.8,53.5,42.7,55.1,39.9,30.4,94,63,32,30.24,29.87,13,2,13,0.02
2013-2-1,65.3,51.1,38.5,39.9,35.5,29.4,82,57,34,30.32,30.22,10,1,10,0.00
2013-2-2,67.3,50.3,35.5,39.9,32.6,22.6,81,53,30,30.34,30.15,7,1,7,0.00
2013-2-3,68.8,53.0,40.4,44.3,36.5,30.8,84,58,25,30.18,30.03,12,1,12,0.00
2013-2-4,64.1,55.0,40.2,44.7,39.1,35.7,94,59,36,30.12,30.05,6,0,6,0.00
2013-2-5,63.1,63.1,63.1,38.4,38.4,38.4,40,40,40,30.06,30.06,0,0,0,0.00
2013-2-6,63.1,63.1,63.1,38.4,38.4,38.4,40,40,40,30.06,30.06,0,0,0,0.00
2013-2-7,63.1,63.1,63.1,38.4,38.4,38.4,40,40,40,30.06,30.06,0,0,0,0.00
2013-2-9,68.5,58.7,49.5,50.1,45.5,42.4,85,63,43,30.25,30.19,12,1,12,0.00
2013-2-10,73.7,61.5,48.0,59.8,53.9,45.0,94,78,57,30.29,30.15,16,4,16,0.00
2013-2-11,81.4,71.3,62.6,65.7,62.4,59.0,89,75,56,30.18,30.04,13,3,13,0.00
2013-2-12,82.5,71.0,62.7,69.1,65.3,60.9,97,84,56,30.07,29.85,16,2,16,0.00
2013-2-13,75.8,70.7,58.8,72.7,65.8,51.2,97,85,55,29.92,29.78,10,3,10,0.25
2013-2-14,58.6,52.8,47.8,56.4,49.9,45.0,96,90,83,30.08,29.90,7,1,7,0.12
2013-2-15,67.8,53.3,41.5,50.9,45.7,39.9,94,78,42,30.10,29.96,6,1,6,0.00
2013-2-16,58.8,48.2,39.7,47.8,42.5,27.6,94,81,57,30.14,29.91,18,2,18,0.00
2013-2-17,54.6,42.3,31.5,28.6,23.2,14.4,77,51,21,30.35,30.13,12,2,12,0.00
2013-2-18,63.2,46.8,29.6,44.0,35.3,26.1,91,68,35,30.41,30.22,12,1,12,0.00
2013-2-19,78.2,61.0,43.3,62.5,52.1,40.9,97,76,46,30.23,29.98,17,3,17,0.00
2013-2-20,70.2,58.0,46.4,57.9,41.9,30.3,93,59,30,30.18,30.05,9,2,9,0.00
2013-2-21,71.1,58.1,43.6,57.1,47.9,37.8,92,72,34,30.15,30.03,9,1,9,0.00
2013-2-22,81.7,70.4,60.8,69.1,64.7,56.8,98,83,58,30.07,29.97,14,2,14,0.00
2013-2-23,82.3,71.8,62.2,69.6,65.7,61.0,98,82,56,29.97,29.82,17,3,17,0.05
2013-2-24,76.1,65.4,58.9,66.0,57.9,39.3,98,80,32,29.99,29.84,12,1,12,0.14
2013-2-25,66.5,61.8,59.1,65.9,60.5,54.3,99,96,84,29.94,29.78,15,1,15,0.53
2013-2-26,79.1,68.7,60.4,69.1,63.4,54.9,99,85,45,29.82,29.65,20,4,20,0.27
2013-2-27,71.5,61.0,53.4,55.5,49.4,45.7,86,68,42,29.97,29.82,7,2,7,0.05
2013-2-28,71.8,59.3,47.2,50.5,44.6,36.5,90,61,39,29.97,29.83,15,2,15,0.02
2013-3-1,62.7,53.7,47.9,44.1,39.0,36.3,69,58,44,30.00,29.89,9,3,9,0.01
2013-3-2,57.0,46.9,37.9,39.1,34.9,31.0,91,65,40,30.02,29.91,12,2,12,0.00
2013-3-3,47.9,41.1,33.5,33.8,30.9,28.5,87,68,48,30.12,29.98,14,2,14,0.00
2013-3-4,65.6,48.3,32.6,42.7,33.3,27.0,89,61,29,30.22,30.10,7,1,7,0.00
2013-3-5,76.3,60.0,40.6,58.9,46.9,37.9,91,65,31,30.17,29.88,18,4,18,0.00
2013-3-6,65.6,53.4,44.2,61.6,38.3,30.8,92,59,33,30.13,29.85,16,5,16,0.00
2013-3-7,65.6,50.2,37.3,44.6,37.6,32.0,88,64,37,30.23,30.12,5,1,5,0.00
2013-3-8,72.1,53.9,40.1,53.3,44.7,38.1,94,74,35,30.23,30.14,9,1,9,0.00
2013-3-9,69.4,55.1,42.0,52.0,47.4,40.7,96,77,48,30.27,30.17,10,0,10,0.00
2013-3-10,74.2,61.8,48.6,59.7,53.8,47.2,97,77,53,30.22,30.11,16,2,16,0.00
2013-3-11,75.0,65.7,53.9,61.2,57.6,52.8,97,77,56,30.13,29.88,15,3,15,0.00
2013-3-12,69.1,64.4,51.7,66.1,59.4,47.6,97,84,57,30.01,29.82,12,2,12,0.00
2013-3-13,72.3,59.2,47.8,48.0,40.3,34.3,87,53,28,30.18,30.01,12,3,12,0.00
2013-3-14,63.2,52.5,41.6,40.0,34.0,29.6,80,51,32,30.30,30.16,9,2,9,0.01
2013-3-15,73.8,55.8,39.0,46.7,39.4,32.7,87,59,29,30.28,30.10,5,1,5,0.01
2013-3-16,80.5,63.7,46.1,57.1,48.2,39.8,95,60,34,30.15,29.98,15,2,15,0.00
2013-3-17,77.1,64.9,49.3,55.5,49.1,43.7,94,60,32,30.12,29.97,15,2,15,0.00
2013-3-18,80.6,69.3,61.0,65.5,60.9,53.8,91,76,57,30.04,29.85,10,1,10,0.00
2013-3-19,80.9,70.0,60.2,65.4,60.6,55.0,94,73,51,30.01,29.87,9,2,9,0.00
2013-3-20,68.8,60.2,52.3,57.9,53.9,49.6,96,80,60,30.01,29.83,9,1,9,0.00
2013-3-21,68.5,54.7,42.1,51.2,39.2,29.1,97,62,24,29.95,29.84,7,1,7,0.00
2013-3-22,66.8,55.4,46.8,49.6,42.3,34.8,82,63,41,30.06,29.92,8,1,8,0.00
2013-3-23,66.7,59.2,52.6,64.7,57.3,49.2,99,93,80,29.99,29.76,12,1,12,0.65
2013-3-24,84.2,71.4,60.4,74.2,66.4,60.1,99,86,57,29.80,29.51,16,4,16,0.02
2013-3-25,68.8,59.6,50.6,61.8,41.0,28.6,88,53,25,30.02,29.61,12,4,12,0.01
2013-3-26,58.7,49.1,40.2,35.2,31.1,26.9,74,51,35,30.24,30.02,14,3,14,0.00
2013-3-27,62.5,49.2,37.2,38.9,34.2,30.6,78,59,36,30.30,30.20,8,2,8,0.00
2013-3-28,69.8,53.9,39.7,45.3,38.0,31.9,86,60,25,30.30,30.19,10,1,10,0.00
2013-3-29,74.2,57.8,42.6,49.4,43.1,38.7,94,64,28,30.33,30.18,7,1,7,0.00
2013-3-30,77.7,62.5,45.0,48.6,45.1,39.1,93,59,27,30.26,30.08,10,1,10,0.00
2013-3-31,80.7,67.4,53.6,58.8,52.9,44.5,84,61,45,30.12,29.95,14,3,14,0.00
2013-4-1,82.5,70.8,61.9,66.8,62.3,57.9,92,76,53,29.98,29.87,12,2,12,0.00
2013-4-2,79.1,66.8,55.8,62.0,53.2,47.1,94,66,36,30.10,29.96,10,1,10,0.00
2013-4-3,79.4,64.7,54.2,65.5,59.2,52.1,97,84,54,30.09,30.01,12,1,12,0.00
2013-4-4,76.7,69.6,64.0,70.7,65.9,63.1,98,89,73,30.05,29.83,17,2,17,0.02
2013-4-5,66.9,59.6,55.2,64.6,57.8,53.0,97,94,89,30.02,29.80,7,1,7,0.25
2013-4-6,72.3,60.3,48.6,59.8,53.7,47.0,95,80,53,30.17,30.02,8,1,8,0.00
2013-4-7,77.0,65.8,56.0,64.1,58.6,54.6,96,79,58,30.19,30.08,15,2,15,0.00
2013-4-8,82.0,68.8,56.4,65.7,60.6,55.2,97,77,50,30.16,30.06,13,2,13,0.00
2013-4-9,81.4,71.3,61.1,68.9,64.0,60.0,99,79,58,30.18,30.08,17,2,17,0.00
2013-4-10,81.7,71.3,58.9,69.1,64.6,57.5,98,81,62,30.14,29.99,13,3,13,0.00
2013-4-11,85.3,75.2,69.0,74.5,70.8,67.2,97,87,65,29.99,29.79,13,3,13,0.57
2013-4-12,87.2,76.8,71.4,74.7,70.6,66.9,98,82,55,29.87,29.73,18,3,20,0.02
2013-4-13,82.5,72.1,63.2,68.8,57.2,49.2,91,62,33,30.00,29.86,7,1,7,0.00
2013-4-14,73.6,65.4,61.9,67.0,62.3,58.6,98,90,66,30.01,29.85,9,0,9,0.51
2013-4-15,84.7,70.7,61.8,71.1,65.5,61.2,99,85,58,30.11,29.81,5,0,5,0.08
2013-4-16,82.0,72.0,65.7,71.9,67.1,64.1,96,86,64,30.18,30.08,9,1,9,0.01
2013-4-17,78.0,70.6,62.9,71.0,66.5,61.7,97,87,73,30.17,30.08,6,0,6,0.01
2013-4-18,84.8,74.4,64.5,72.0,67.5,63.3,98,81,58,30.09,29.95,14,2,14,0.00
2013-4-19,88.1,78.0,66.1,73.8,71.0,62.6,94,80,55,30.00,29.84,15,3,15,0.00
2013-4-20,65.9,56.3,50.8,62.5,53.9,49.4,97,92,81,30.19,29.98,12,1,12,0.25
2013-4-21,70.7,61.9,52.5,63.6,58.3,50.8,96,88,77,30.20,30.10,9,1,9,0.01
2013-4-22,64.6,62.1,59.8,63.1,59.6,55.5,97,92,79,30.15,30.05,7,1,7,0.39
2013-4-23,73.4,63.4,55.4,62.1,57.7,54.3,97,83,61,30.16,30.06,7,0,7,0.00
2013-4-24,83.1,68.1,53.3,65.8,59.9,52.3,100,78,44,30.15,30.06,9,1,9,0.00
2013-4-25,86.4,73.2,60.3,69.9,64.9,59.1,97,77,51,30.19,30.09,7,1,7,0.00
2013-4-26,80.4,71.4,62.9,69.8,63.3,56.3,89,76,63,30.28,30.16,7,0,7,0.00
2013-4-27,80.8,70.5,60.3,65.0,61.7,58.6,96,76,51,30.25,30.14,10,1,10,0.00
2013-4-28,81.5,72.6,65.5,69.1,65.6,63.3,96,80,60,30.17,29.98,15,4,15,0.00
2013-4-29,81.9,71.9,64.7,70.0,65.9,63.5,97,82,62,30.02,29.90,8,1,8,0.22
2013-4-30,85.7,71.2,63.8,72.4,66.2,63.1,99,85,57,30.03,29.93,9,0,9,0.01
2013-5-1,76.8,69.6,65.4,70.2,65.9,62.8,97,88,78,30.06,29.97,5,0,5,0.00
2013-5-2,70.1,68.3,66.7,69.2,67.1,64.6,97,96,90,30.03,29.90,8,1,8,1.69
2013-5-3,69.4,66.8,64.7,67.5,64.8,61.0,97,93,75,29.90,29.82,17,2,17,1.23
2013-5-4,69.2,67.3,65.0,68.3,65.7,61.7,97,95,79,29.83,29.70,15,1,15,0.95
2013-5-5,76.9,67.7,59.7,68.3,58.9,51.2,97,76,42,29.87,29.70,10,2,10,0.00
2013-5-6,73.4,64.5,54.8,58.4,52.7,47.5,91,67,44,29.97,29.84,12,1,12,0.00
2013-5-7,76.5,66.0,55.1,62.4,56.8,52.2,91,73,49,30.01,29.89,13,2,13,0.00
2013-5-8,80.4,69.3,57.4,62.8,59.2,56.0,97,73,48,30.09,29.98,9,1,9,0.00
2013-5-9,84.6,72.9,62.7,66.8,62.9,60.1,96,73,45,30.12,30.05,10,1,10,0.00
2013-5-10,87.7,74.4,61.3,70.0,64.3,59.7,96,73,43,30.12,29.97,13,2,13,0.00
2013-5-11,88.4,73.9,66.9,74.0,68.0,63.9,96,83,55,30.04,29.92,13,1,13,0.05
2013-5-12,84.8,74.3,66.3,70.5,66.5,60.1,97,79,56,30.01,29.92,9,1,9,0.00
2013-5-13,79.4,70.0,61.4,61.5,51.6,44.6,79,54,32,30.14,29.99,8,1,8,0.00
2013-5-14,80.9,66.5,52.3,55.8,47.8,38.9,81,55,23,30.24,30.14,6,0,6,0.00
2013-5-15,84.3,70.4,55.6,62.3,57.3,53.7,95,67,39,30.22,30.06,10,1,12,0.00
2013-5-16,85.0,74.0,62.3,69.3,63.6,59.3,91,72,46,30.12,30.00,13,2,13,0.00
2013-5-17,86.8,75.2,64.0,70.6,66.0,58.9,96,75,40,30.10,30.03,9,2,9,0.00
2013-5-18,87.8,76.8,67.9,74.4,70.0,66.4,96,81,50,30.12,30.00,12,2,12,0.26
2013-5-19,83.9,75.7,68.9,75.9,71.2,67.0,97,86,69,30.10,29.98,16,2,16,0.06
2013-5-20,82.9,74.6,68.3,75.3,71.2,66.7,99,90,74,30.09,30.00,10,1,10,0.17
2013-5-21,83.1,73.6,68.7,74.1,70.7,67.5,96,91,70,30.04,29.93,10,1,10,0.09
2013-5-22,82.0,74.9,67.5,74.8,70.8,66.3,97,88,70,29.99,29.89,10,1,10,0.04
2013-5-23,89.5,78.7,69.1,74.9,70.4,67.7,96,78,52,29.97,29.88,7,1,7,0.01
2013-5-24,88.8,78.4,70.6,71.3,65.5,57.0,95,68,37,30.10,29.92,12,1,12,0.00
2013-5-25,83.2,72.7,63.1,62.5,59.0,54.2,91,64,44,30.24,30.09,8,1,8,0.00
2013-5-26,85.1,72.6,60.4,62.7,58.6,53.1,94,65,38,30.23,30.14,9,1,9,0.00
2013-5-27,84.7,73.1,61.2,67.7,63.9,59.3,94,75,52,30.20,30.12,12,2,12,0.00
2013-5-28,84.7,75.7,66.4,71.2,67.7,64.2,94,77,61,30.17,30.11,12,2,12,0.00
2013-5-29,86.0,78.1,70.6,75.0,72.0,68.5,94,82,68,30.16,30.08,18,2,18,0.00
2013-5-30,86.1,78.6,73.5,75.1,73.0,71.7,96,84,65,30.17,30.08,12,2,12,0.06
2013-5-31,85.3,77.8,71.2,74.3,71.8,70.2,97,83,66,30.15,30.07,17,3,17,0.00
2013-6-1,86.6,79.0,72.6,74.3,72.4,70.2,95,81,61,30.09,30.01,14,3,14,0.07
2013-6-2,85.7,78.9,73.9,79.2,75.2,72.5,97,89,75,30.05,29.86,13,3,13,0.79
2013-6-3,90.9,78.7,72.9,80.2,74.5,71.7,97,88,61,29.95,29.84,12,1,12,0.05
2013-6-4,86.3,78.0,72.4,79.7,74.3,71.2,96,89,73,30.01,29.91,9,1,9,0.06
2013-6-5,84.0,76.0,73.0,75.2,72.7,71.4,96,90,68,30.00,29.92,12,1,12,0.03
2013-6-6,76.8,73.8,71.3,75.1,72.4,69.8,96,95,94,29.93,29.51,24,4,24,1.34
2013-6-7,87.9,78.4,70.3,76.4,72.4,68.5,95,83,63,29.90,29.54,17,3,17,0.02
2013-6-8,91.0,80.3,72.3,78.1,73.5,70.6,96,81,56,30.06,29.90,12,2,12,0.00
2013-6-9,89.0,78.3,73.2,78.8,74.3,71.5,96,88,65,30.11,30.02,14,2,14,0.23
2013-6-10,90.5,80.8,74.0,77.5,75.0,72.8,97,84,60,30.09,29.98,12,1,12,0.00
2013-6-11,91.3,82.2,73.9,78.8,75.1,72.3,96,80,60,30.07,29.97,7,1,7,0.00
2013-6-12,95.5,84.3,73.1,78.5,75.0,71.7,96,76,49,30.05,29.94,7,1,7,0.00
2013-6-13,94.9,83.6,77.4,80.2,77.2,75.2,94,82,55,29.98,29.83,7,1,7,0.16
2013-6-14,92.1,79.7,70.6,80.6,75.7,69.0,98,88,65,29.93,29.76,15,2,15,1.39
2013-6-15,85.9,78.6,71.2,73.8,71.3,68.9,98,80,61,30.08,29.92,13,2,13,0.00
2013-6-16,86.8,79.7,72.3,76.6,72.5,69.8,93,79,64,30.12,30.02,10,2,10,0.00
2013-6-17,91.8,82.7,76.4,80.3,76.5,74.2,95,82,62,30.08,29.93,13,1,13,0.00
2013-6-18,92.1,82.5,72.8,76.2,73.4,71.3,96,76,53,30.02,29.89,10,2,10,0.00
2013-6-19,91.8,82.8,74.5,77.5,74.3,72.2,96,77,55,30.02,29.90,9,1,9,0.00
2013-6-20,90.5,79.7,73.5,79.3,74.4,70.3,95,84,67,30.08,29.97,12,1,12,0.00
2013-6-21,88.6,77.9,74.6,78.7,74.5,72.8,97,90,66,30.11,30.03,5,0,7,1.26
2013-6-22,82.8,76.1,73.1,78.0,74.1,72.2,97,94,80,30.12,30.06,9,0,9,0.86
2013-6-23,89.1,80.0,72.6,78.9,74.3,70.8,95,84,61,30.15,30.07,13,1,13,0.00
2013-6-24,89.9,81.1,74.4,77.3,74.8,71.1,96,82,58,30.19,30.08,15,2,15,0.00
2013-6-25,91.0,81.4,74.7,77.8,74.7,67.9,96,81,49,30.16,30.03,10,1,10,0.00
2013-6-26,91.6,79.3,74.2,79.0,75.1,72.3,96,87,62,30.08,29.98,16,1,16,0.49
2013-6-27,91.9,81.1,71.2,79.6,74.6,69.7,96,82,56,30.01,29.86,8,1,8,0.00
2013-6-28,89.7,79.6,76.3,78.1,74.9,72.6,93,86,64,29.92,29.77,12,2,12,0.01
2013-6-29,86.0,79.9,76.5,77.8,75.2,73.0,95,86,71,29.80,29.73,13,2,13,0.01
2013-6-30,85.3,77.2,74.6,78.2,74.5,73.1,96,92,78,29.81,29.76,8,1,8,0.00
2013-7-1,83.4,75.9,73.1,77.1,73.4,71.5,97,92,74,30.00,29.81,4,0,14,0.73
2013-7-2,86.8,76.0,72.6,77.8,73.7,71.7,97,93,73,30.09,29.97,22,2,22,0.26
2013-7-3,88.8,78.2,72.2,79.1,75.0,71.0,97,90,67,30.12,30.05,17,2,17,0.05
2013-7-4,88.2,79.7,72.7,78.8,75.0,71.0,97,86,68,30.17,30.07,18,4,18,0.44
2013-7-5,88.2,79.9,72.7,79.3,74.9,71.8,98,86,67,30.16,30.08,21,4,21,0.00
2013-7-6,88.6,81.6,76.2,77.6,75.5,74.2,95,82,66,30.13,30.05,16,4,16,0.00
2013-7-7,88.7,81.4,75.3,78.4,75.2,73.2,96,82,66,30.14,30.06,12,2,12,0.00
2013-7-8,89.8,81.6,74.6,78.7,75.3,73.3,97,82,64,30.17,30.08,14,2,14,0.00
2013-7-9,90.1,82.0,75.5,77.8,74.7,71.9,96,80,57,30.17,30.06,9,1,9,0.00
2013-7-10,90.7,81.3,73.4,76.5,74.1,71.8,97,80,56,30.09,29.95,12,1,12,0.00
2013-7-11,91.6,80.9,74.9,77.5,74.9,72.6,95,83,58,30.01,29.85,8,1,18,0.03
2013-7-12,86.8,77.5,73.7,78.5,74.8,71.7,98,92,72,29.93,29.87,18,0,18,0.93
2013-7-13,87.0,75.9,71.6,78.7,73.7,70.7,98,93,72,29.99,29.88,8,0,8,1.63
2013-7-14,84.8,76.6,71.3,77.9,73.3,70.5,99,90,74,30.11,29.97,13,2,13,0.00
2013-7-15,84.8,77.4,73.0,80.0,75.0,71.7,97,92,78,30.16,30.08,16,1,16,0.77
2013-7-16,86.9,79.5,74.2,80.2,75.8,73.0,97,89,73,30.19,30.13,13,0,13,0.44
2013-7-17,89.6,80.9,74.6,78.1,74.6,72.1,95,82,62,30.19,30.08,8,0,8,0.00
2013-7-18,89.1,80.7,73.6,77.9,74.8,71.8,95,83,63,30.12,30.03,12,1,12,0.00
2013-7-19,88.4,78.1,73.0,77.4,74.2,71.5,96,88,65,30.11,30.03,10,1,10,0.25
2013-7-20,88.7,76.7,72.0,78.9,73.4,70.2,95,90,69,30.08,30.00,8,1,8,0.05
2013-7-21,90.1,78.9,72.4,78.7,74.3,70.8,95,86,64,30.09,30.00,3,0,14,0.03
2013-7-22,91.0,77.7,74.7,77.3,75.0,73.0,96,92,64,30.10,30.00,6,1,20,0.38
2013-7-23,89.9,78.7,73.5,80.0,75.1,72.0,95,89,71,30.01,29.89,13,2,13,0.00
2013-7-24,86.5,78.4,72.8,78.7,74.6,70.3,97,88,74,29.91,29.79,12,1,12,0.15
2013-7-25,90.1,81.0,73.2,79.0,75.1,71.5,95,83,64,29.94,29.81,8,1,8,0.00
2013-7-26,91.0,82.3,75.3,79.9,76.6,74.1,96,84,63,30.00,29.92,9,1,9,0.00
2013-7-27,89.1,80.1,74.1,82.1,76.3,71.5,97,89,69,29.99,29.86,18,0,18,0.59
2013-7-28,89.2,78.8,73.8,78.5,75.1,72.6,97,89,63,30.04,29.90,8,0,8,0.23
2013-7-29,91.8,81.1,72.4,79.7,75.1,71.2,96,83,60,30.13,30.01,12,1,12,0.00
2013-7-30,92.6,81.1,76.3,79.6,76.7,74.4,96,87,62,30.16,30.07,5,0,5,0.02
2013-7-31,89.1,78.2,73.7,80.1,75.4,72.5,97,92,73,30.11,30.02,6,0,6,0.13
2013-8-1,90.9,77.9,72.6,79.5,74.3,71.5,97,89,62,30.03,29.92,12,0,12,0.00
2013-8-2,91.7,80.9,72.6,80.5,75.2,71.4,97,84,60,30.02,29.92,10,1,10,0.00
2013-8-3,89.5,81.1,75.2,82.6,77.2,73.7,96,88,71,30.03,29.96,9,0,9,0.17
2013-8-4,94.0,83.8,76.2,81.2,77.4,73.9,97,82,58,30.03,29.91,7,0,7,0.00
2013-8-5,94.8,85.1,78.8,81.1,78.5,76.8,96,82,58,29.98,29.88,8,0,8,0.00
2013-8-6,90.8,83.5,79.0,81.0,78.3,77.2,95,85,68,29.98,29.89,12,1,12,0.00
2013-8-7,89.7,83.2,78.7,80.6,77.8,76.5,94,84,70,30.00,29.92,9,1,9,0.00
2013-8-8,90.6,82.4,78.0,81.0,77.7,74.8,97,86,62,30.05,29.94,12,2,12,0.30
2013-8-9,90.7,82.5,76.6,80.6,77.0,74.5,97,84,63,30.08,29.97,11,1,11,0.00
2013-8-10,93.4,83.1,76.0,79.5,76.7,72.1,97,82,53,30.13,30.04,12,1,12,0.00
2013-8-11,94.1,84.7,76.8,80.4,77.0,72.5,96,79,51,30.15,30.04,12,2,12,0.00
2013-8-12,95.7,83.8,77.2,82.5,77.8,74.7,97,83,57,30.12,29.97,8,0,8,0.19
2013-8-13,94.6,83.8,75.1,81.9,75.9,70.8,97,79,49,30.01,29.88,7,0,7,0.01
2013-8-14,95.0,83.5,73.9,80.6,76.4,72.0,97,81,54,29.98,29.84,25,1,25,0.52
2013-8-15,93.0,79.6,74.3,79.6,75.3,73.5,98,88,58,30.02,29.89,9,1,9,0.73
2013-8-16,88.2,78.0,73.4,78.4,75.3,72.8,99,92,69,30.04,29.93,8,0,8,0.04
2013-8-17,87.8,80.0,75.0,80.0,76.6,73.8,97,90,74,30.10,29.99,12,1,12,0.22
2013-8-18,91.0,81.3,74.3,81.2,77.0,73.4,98,88,68,30.11,30.02,13,2,13,0.00
2013-8-19,90.9,83.8,78.0,80.0,78.0,75.9,96,84,64,30.09,29.95,12,2,12,0.00
2013-8-20,92.7,82.8,74.9,80.9,76.8,73.7,97,83,61,30.11,30.00,10,1,10,0.01
2013-8-21,89.3,81.4,77.1,81.1,77.7,75.8,96,89,73,30.16,30.07,7,0,7,0.07
2013-8-22,80.8,77.5,73.4,78.6,75.9,72.2,97,95,89,30.15,30.01,16,0,16,0.93
2013-8-23,87.8,77.8,74.0,80.5,75.4,73.1,97,93,74,30.04,29.98,5,0,12,0.10
2013-8-24,84.0,78.1,73.5,78.8,75.3,72.6,97,91,80,30.13,30.00,0,0,6,0.00
2013-8-25,84.3,77.7,74.0,78.0,74.7,71.8,95,90,79,30.19,30.11,8,0,8,0.05
2013-8-26,87.5,78.6,72.0,78.7,74.2,70.5,96,87,70,30.18,30.06,10,0,10,0.00
2013-8-27,88.1,79.6,73.5,76.9,72.5,69.5,95,80,60,30.09,29.99,8,0,8,0.00
2013-8-28,89.8,80.0,71.2,75.0,71.9,69.4,96,78,56,30.05,29.95,8,1,8,0.00
2013-8-29,93.8,82.6,72.0,76.1,72.5,69.6,94,74,49,30.01,29.89,5,0,5,0.00
2013-8-30,95.5,83.3,76.3,79.7,75.4,73.0,94,78,51,29.95,29.84,7,0,7,0.00
2013-8-31,91.1,79.8,73.5,80.0,74.7,72.0,96,85,66,29.95,29.85,12,0,12,0.00
2013-9-1,92.0,81.7,74.1,78.7,75.1,72.6,96,82,57,29.96,29.85,12,1,12,0.00
2013-9-2,93.1,82.0,73.5,82.3,75.5,72.0,96,82,58,29.98,29.86,9,1,9,0.04
2013-9-3,92.0,82.8,75.1,79.8,76.2,73.7,96,82,62,29.98,29.87,9,1,9,0.00
2013-9-4,93.3,82.1,74.2,79.2,76.0,72.8,97,83,57,30.06,29.95,9,0,9,0.42
2013-9-5,94.9,80.4,73.4,81.0,75.9,72.5,97,88,56,30.08,29.98,9,0,9,0.15
2013-9-6,89.9,77.9,73.0,80.0,75.2,72.1,97,92,68,30.04,29.96,8,0,8,0.44
2013-9-7,89.5,79.0,71.0,77.9,73.3,70.1,97,84,62,30.02,29.94,2,0,2,0.00
2013-9-8,89.4,79.5,71.2,75.7,71.7,67.6,96,79,50,29.98,29.90,6,0,6,0.00
2013-9-9,89.5,79.8,72.0,76.1,72.1,70.2,95,79,54,30.06,29.95,11,1,11,0.00
2013-9-10,90.1,80.8,73.0,76.4,72.7,71.0,95,77,54,30.13,30.03,7,0,4,0.00
2013-9-11,90.4,80.9,73.2,77.6,74.0,70.9,96,81,58,30.11,30.02,6,0,9,0.00
2013-9-12,87.8,79.5,72.7,78.8,74.4,71.2,96,85,65,30.04,29.88,8,0,8,0.23
2013-9-13,93.0,82.0,72.5,77.6,73.7,69.7,97,78,48,29.91,29.76,7,0,7,0.00
2013-9-14,93.8,80.6,74.3,78.6,74.7,71.8,96,83,54,29.98,29.80,5,0,5,0.03
2013-9-15,92.3,82.1,73.8,79.6,75.2,72.0,97,81,60,30.08,29.97,12,1,12,0.01
2013-9-16,90.8,81.9,75.1,80.6,76.4,73.9,97,84,64,30.08,29.98,8,1,8,0.04
2013-9-17,87.0,79.0,74.2,78.4,75.2,73.0,97,89,70,30.09,29.99,8,0,8,0.38
2013-9-18,82.0,75.3,72.4,76.4,72.8,69.9,99,92,77,30.11,30.02,12,1,12,5.42
2013-9-19,84.3,75.2,71.5,78.8,72.9,70.0,96,93,79,30.09,30.01,4,0,4,0.52
2013-9-20,85.4,76.1,69.7,75.1,71.2,68.5,97,86,67,30.05,29.91,7,0,7,0.00
2013-9-21,87.8,78.1,68.8,76.5,71.9,67.6,97,83,63,29.94,29.73,8,1,8,0.00
2013-9-22,83.0,76.2,72.8,76.8,73.4,71.5,96,91,78,29.84,29.72,7,0,7,0.07
2013-9-23,81.2,75.8,72.4,77.4,73.8,71.2,97,94,85,29.95,29.82,5,0,5,0.03
2013-9-24,82.9,76.6,74.0,78.2,74.6,72.7,97,93,82,29.94,29.81,4,0,4,0.56
2013-9-25,83.4,77.5,74.3,77.9,74.8,72.7,95,92,81,29.82,29.73,8,0,8,0.00
2013-9-26,78.4,74.9,70.0,75.1,72.4,68.0,95,92,85,29.90,29.72,7,1,7,0.02
2013-9-27,80.9,73.1,66.4,74.0,69.0,64.6,94,87,76,30.00,29.87,5,0,4,0.13
2013-9-28,76.3,72.7,70.0,71.5,69.2,66.7,96,89,74,30.07,29.96,5,0,5,0.09
2013-9-29,83.2,73.3,66.8,73.7,68.7,65.0,95,86,70,30.02,29.94,4,0,4,0.00
2013-9-30,83.0,73.2,66.2,72.0,67.1,64.4,96,82,63,30.03,29.93,5,0,4,0.00
2013-10-1,83.1,74.0,68.6,71.0,67.2,65.2,92,80,63,30.09,30.01,8,0,8,0.00
2013-10-2,83.4,73.1,63.9,71.1,67.2,62.4,96,83,62,30.10,30.03,6,0,6,0.00
2013-10-3,84.8,75.2,66.3,76.0,71.2,65.0,96,88,74,30.09,30.01,7,0,7,0.00
2013-10-4,87.0,77.5,70.6,77.4,73.4,69.4,97,88,67,30.10,30.01,5,0,5,0.00
2013-10-5,85.2,77.2,70.0,77.5,72.9,68.7,97,87,71,30.07,29.98,4,0,4,0.00
2013-10-6,86.5,77.8,70.6,78.4,74.0,69.4,97,89,71,30.00,29.85,8,1,8,0.00
2013-10-7,88.0,77.9,72.4,78.0,74.0,71.2,97,88,66,29.86,29.73,9,0,9,0.00
2013-10-8,80.2,73.0,66.4,76.9,71.3,64.3,96,94,89,30.01,29.77,7,0,7,0.12
2013-10-9,73.1,65.3,61.6,66.8,62.8,60.3,96,92,79,30.09,29.99,8,1,8,0.00
2013-10-10,84.5,71.8,61.4,68.9,64.2,60.2,96,79,50,30.07,29.96,6,0,4,0.00
2013-10-11,86.4,73.3,63.3,68.7,64.6,62.0,97,77,49,30.03,29.92,5,0,5,0.00
2013-10-12,87.7,73.8,62.6,67.7,64.3,61.1,96,75,44,30.03,29.95,6,0,6,0.00
2013-10-13,89.8,73.5,62.1,70.6,65.8,60.7,96,79,44,30.09,30.00,12,1,12,0.00
2013-10-14,80.1,71.4,65.4,71.6,67.4,63.9,95,88,72,30.07,29.99,14,4,14,0.00
2013-10-15,70.8,69.2,67.4,69.1,67.2,65.9,96,94,91,30.01,29.94,12,1,12,0.03
2013-10-16,86.3,73.9,65.5,73.9,68.8,63.7,95,85,63,29.98,29.91,6,0,6,0.00
2013-10-17,90.0,76.6,65.9,74.4,69.9,64.7,97,82,54,29.98,29.87,12,1,12,0.00
2013-10-18,89.4,78.0,68.5,76.0,71.6,67.3,97,82,55,29.98,29.88,10,1,10,0.00
2013-10-19,88.6,78.3,71.1,76.3,73.0,69.9,97,85,65,29.94,29.83,7,1,7,0.00
2013-10-20,83.0,73.7,67.5,71.6,66.3,62.6,93,79,56,29.99,29.88,12,2,12,0.00
2013-10-21,83.0,74.2,68.8,76.0,70.6,66.0,95,89,78,30.02,29.93,8,1,8,0.00
2013-10-22,80.0,73.4,70.1,76.3,71.7,68.6,97,94,87,29.97,29.80,8,1,8,0.18
2013-10-23,79.3,68.6,57.8,69.1,59.6,50.8,97,76,42,30.03,29.80,6,0,6,0.05
2013-10-24,74.0,61.0,52.0,55.2,49.5,43.1,92,67,43,30.18,30.02,10,3,10,0.00
2013-10-25,78.4,62.7,50.6,57.7,52.0,45.8,96,71,41,30.26,30.15,14,3,14,0.00
2013-10-26,76.0,60.7,49.1,59.3,52.8,45.8,93,77,52,30.25,30.12,8,1,9,0.00
2013-10-27,76.3,61.6,48.3,56.8,50.8,45.3,97,72,35,30.16,30.07,9,1,9,0.00
2013-10-28,81.4,65.8,53.5,64.1,57.7,51.9,96,77,52,30.22,30.10,10,1,10,0.00
2013-10-29,81.3,68.0,57.7,69.4,61.7,56.3,97,82,56,30.28,30.19,8,1,8,0.00
2013-10-30,82.7,69.7,59.9,70.0,63.9,58.5,97,83,62,30.27,30.15,7,1,7,0.00
2013-10-31,85.7,73.8,64.4,73.8,67.7,62.3,99,83,57,30.16,29.97,17,3,17,0.03
2013-11-1,83.4,75.3,68.7,73.1,69.8,67.0,95,84,65,29.99,29.79,15,4,15,0.00
2013-11-2,75.6,67.3,57.2,73.1,64.0,55.4,98,90,61,29.95,29.77,16,3,16,1.45
2013-11-3,74.3,61.3,52.3,58.7,52.3,47.1,95,74,42,30.19,29.95,12,3,12,0.00
2013-11-4,74.3,62.6,53.5,63.7,57.6,50.0,97,84,68,30.26,30.17,21,4,21,0.08
2013-11-5,70.8,64.7,60.8,66.6,63.0,59.7,98,95,85,30.26,30.18,17,4,17,0.03
2013-11-6,79.7,69.8,65.2,72.4,67.3,64.0,97,92,76,30.18,30.06,12,2,12,0.02
2013-11-7,83.3,71.3,66.7,70.9,67.3,65.4,96,88,62,30.06,29.96,12,2,12,0.00
2013-11-8,70.7,60.9,51.3,65.4,51.6,45.8,88,72,57,30.21,30.02,20,5,20,0.00
2013-11-9,77.3,63.1,50.6,65.2,57.6,48.6,95,83,63,30.24,30.15,12,1,12,0.00
2013-11-10,79.1,65.7,58.7,67.3,61.1,57.1,98,86,62,30.22,30.11,10,1,10,0.00
2013-11-11,79.6,65.9,54.5,65.2,60.3,52.8,96,84,58,30.19,30.10,12,1,12,0.00
2013-11-12,78.5,67.7,60.5,67.0,60.6,49.9,96,80,52,30.15,30.02,18,3,18,0.00
2013-11-13,60.5,50.1,42.7,49.8,40.3,34.1,78,69,58,30.42,30.15,22,7,22,0.00
2013-11-14,70.0,54.6,41.0,59.1,48.9,34.5,95,82,67,30.38,30.22,12,4,12,0.00
2013-11-15,65.9,61.2,55.6,64.7,60.0,54.2,97,96,91,30.23,30.04,10,1,10,0.06
2013-11-16,77.3,67.3,58.7,69.8,64.3,57.9,100,91,74,30.17,30.08,8,1,8,0.01
2013-11-17,80.7,72.0,67.0,75.0,69.6,65.7,98,92,79,30.10,29.98,9,1,9,0.29
2013-11-18,78.9,72.2,68.5,74.8,70.4,67.1,96,94,85,30.01,29.88,9,2,9,0.14
2013-11-19,72.7,63.3,54.7,69.6,56.4,46.9,96,79,65,30.05,29.90,17,4,17,0.00
2013-11-20,70.4,63.8,60.5,65.3,60.8,56.5,96,90,83,30.18,30.02,15,4,15,0.01
2013-11-21,78.2,67.0,62.7,70.1,64.1,61.2,96,91,76,30.25,30.15,12,3,13,0.00
2013-11-22,80.3,70.0,64.2,72.1,66.0,62.7,96,88,69,30.24,30.12,17,2,17,0.00
2013-11-23,86.0,70.9,59.6,70.8,64.7,58.5,97,83,50,30.13,29.99,14,3,14,0.00
2013-11-24,65.0,57.5,50.9,60.9,48.5,41.1,88,73,51,30.34,30.07,22,6,22,0.00
2013-11-25,71.2,56.6,43.4,61.1,51.7,39.2,94,84,69,30.33,30.10,15,3,15,0.00
2013-11-26,75.1,69.0,61.7,73.3,67.2,59.1,97,94,89,30.10,29.68,13,1,13,1.29
2013-11-27,70.6,54.7,39.5,69.4,50.7,35.1,96,86,73,30.22,29.60,0,0,0,0.08
2013-11-28,61.1,45.3,32.5,47.5,38.4,28.5,87,77,59,30.41,30.22,6,0,6,0.00
2013-11-29,70.0,53.9,42.3,53.9,46.2,37.6,87,76,53,30.43,30.35,10,3,10,0.00
2013-11-30,64.2,56.3,53.7,58.2,52.8,48.8,93,88,79,30.39,30.23,15,4,15,0.00
2013-12-1,73.9,60.1,51.9,63.8,55.7,49.0,95,86,68,30.23,29.98,7,1,7,0.00
2013-12-2,73.1,60.3,53.1,60.5,55.5,51.7,96,85,58,29.98,29.81,13,2,13,0.00
2013-12-3,76.7,61.8,49.5,63.2,56.6,48.4,99,84,59,29.96,29.87,12,2,12,0.00
2013-12-4,81.5,67.1,56.9,70.6,63.0,55.8,98,88,63,30.09,29.93,8,1,8,0.00
2013-12-5,85.5,70.4,58.0,71.2,64.6,57.2,99,84,55,30.15,30.06,14,2,14,0.00
2013-12-6,85.2,72.2,62.1,72.6,66.6,60.9,99,84,59,30.15,30.07,17,2,17,0.00
2013-12-7,86.5,73.6,64.4,73.3,68.3,63.3,98,85,58,30.21,30.12,14,2,14,0.00
2013-12-8,70.1,66.0,63.5,66.7,64.2,62.3,97,94,87,30.24,30.13,7,0,7,0.00
2013-12-9,86.1,72.1,63.2,72.4,66.7,62.3,99,85,59,30.17,30.05,15,2,15,0.00
2013-12-10,79.7,68.3,53.7,72.0,64.7,48.4,96,89,70,30.25,30.01,13,2,13,0.17
2013-12-11,66.0,57.2,48.2,60.4,52.3,43.6,89,84,78,30.30,30.21,1,0,1,0.00
2013-12-12,70.5,57.5,45.6,52.3,42.3,32.8,88,61,26,30.37,30.23,14,2,14,0.00
2013-12-13,69.2,54.9,43.8,57.4,49.3,40.5,95,82,63,30.33,30.13,12,2,12,0.00
2013-12-14,76.4,65.4,53.8,70.4,63.0,52.1,97,92,80,30.13,29.86,23,4,24,0.75
2013-12-15,67.4,59.6,47.9,66.2,57.0,44.3,98,91,81,30.16,29.84,28,4,28,0.25
2013-12-16,63.2,48.8,38.5,47.1,42.1,36.1,94,79,51,30.25,30.14,10,2,10,0.00
2013-12-17,70.7,52.5,39.8,46.4,42.3,38.3,95,73,33,30.28,30.15,12,1,12,0.00
2013-12-18,68.2,53.0,42.1,43.8,39.4,30.7,91,65,25,30.30,30.18,16,3,16,0.00
2013-12-19,72.2,54.6,39.4,59.5,49.0,37.5,95,83,60,30.30,30.19,9,1,9,0.00
2013-12-20,78.7,61.5,47.8,64.9,56.3,46.7,100,85,59,30.22,30.12,9,1,9,0.00
2013-12-21,84.5,70.1,56.8,71.1,64.5,56.0,100,84,56,30.13,30.01,21,6,21,0.00
2013-12-22,84.2,74.4,67.9,72.8,70.1,66.7,98,87,65,30.12,30.04,20,5,20,0.00
2013-12-23,83.0,73.4,62.2,72.6,69.1,59.3,97,87,68,30.14,30.03,20,4,20,0.00
2013-12-24,65.8,56.3,44.2,59.3,45.3,35.1,93,69,39,30.31,30.11,20,7,20,0.00
2013-12-25,64.5,49.9,39.4,55.2,44.8,33.3,93,83,71,30.31,30.23,15,6,15,0.00
2013-12-26,57.2,52.6,49.1,52.1,48.5,45.4,92,86,78,30.28,30.17,12,4,12,0.00
2013-12-27,59.7,54.5,50.5,54.9,51.1,47.4,93,88,81,30.32,30.22,14,4,14,0.00
2013-12-28,69.4,62.6,56.2,67.0,59.9,50.6,97,91,81,30.28,29.96,13,2,13,0.00
2013-12-29,73.0,68.6,58.4,69.6,66.1,56.3,97,92,82,30.00,29.87,20,5,20,1.00
2013-12-30,69.2,59.1,49.7,56.2,51.4,48.0,94,77,53,30.19,30.00,18,4,18,0.00
2013-12-31,61.9,56.9,53.3,52.5,50.9,49.1,91,81,66,30.32,30.17,12,2,12,0.00
2014-1-1,59.7,56.0,52.2,58.8,54.0,49.3,99,93,87,30.31,30.07,7,1,7,0.11
2014-1-2,64.3,59.4,51.8,63.3,58.4,47.1,99,97,81,30.08,29.74,24,4,24,0.58